Christchurch, New Zealand

5:29 AM NZDT on March 27, 2017 (GMT +1300)
Christchurch

Weather History for 93780 - March, 2013

Change the Weather History Date:

Friday, March 1, 2013

  Actual Average Record
Temperature  
Mean Temperature 63 °F -  
Max Temperature 71 °F 66 °F - ()
Min Temperature 55 °F 48 °F - ()
Degree Days  
Heating Degree Days 2    
Growing Degree Days 13 (Base 50)    
Moisture  
Dew Point 56 °F    
Average Humidity 83    
Maximum Humidity 100    
Minimum Humidity 60    
Precipitation  
Precipitation 0.00 in - - ()
Sea Level Pressure  
Sea Level Pressure 29.89 in    
Wind  
Wind Speed 9 mph ()    
Max Wind Speed 22 mph    
Max Gust Speed -    
Visibility 5.7 miles    
Events      
T = Trace of Precipitation, MM = Missing Value Source: Averaged Metar Reports

Daily Weather History Graph

Daily Weather History Graph

Search for Another Location

Airport or City:

Trip Planner

Search our weather history database for the weather conditions in past years. The results will help you decide how hot, cold, wet, or windy it might be!

Date:

Astronomy

Mar. 01, 2013 Rise Set
Actual Time 7:08 AM NZDT 8:15 PM NZDT
Civil Twilight 6:38 AM NZDT 8:44 PM NZDT
Nautical Twilight 6:03 AM NZDT 9:19 PM NZDT
Astronomical Twilight 5:26 AM NZDT 9:56 PM NZDT
Moon 9:37 PM NZDT (3/1) 10:35 AM NZDT (3/1)
Length of Visible Light 14h 06m
Length of Day
13h 07m
Waning Gibbous, 89% of the Moon is Illuminated
Mar 1
Waning Gibbous
Mar 5
Last Quarter
Mar 12
New
Mar 20
First Quarter
Mar 27
Full

Hourly Weather History & Observations

Time (NZDT) Temp. Dew Point Humidity Pressure Visibility Wind Dir Wind Speed Gust Speed Precip Events Conditions
12:00 AM 62.6 °F 59.0 °F 88% 29.83 in - East 12.7 mph - N/A   Clear
1:00 AM 60.8 °F 59.0 °F 94% 29.83 in - East 9.2 mph - N/A   Clear
2:00 AM 60.8 °F 59.0 °F 94% 29.80 in 6.2 mi East 6.9 mph - N/A   Partly Cloudy
3:00 AM 57.2 °F 55.4 °F 94% 29.83 in 6.2 mi NNE 2.3 mph - N/A   Mostly Cloudy
3:30 AM 57.2 °F 57.2 °F 100% 29.83 in 6.2 mi NNE 3.5 mph - N/A   Partly Cloudy
4:00 AM 55.4 °F 53.6 °F 94% 29.83 in 6.2 mi NNW 3.5 mph - N/A   Partly Cloudy
5:00 AM 57.2 °F 57.2 °F 100% 29.83 in 6.2 mi West 4.6 mph - N/A   Partly Cloudy
5:10 AM 57.2 °F 57.2 °F 100% 29.83 in 6.2 mi West 4.6 mph - N/A   Mostly Cloudy
6:00 AM 59.0 °F 59.0 °F 100% 29.83 in 3.1 mi SW 5.8 mph - N/A   Mostly Cloudy
6:15 AM 59.0 °F 59.0 °F 100% 29.86 in 3.1 mi SW 6.9 mph - N/A   Mostly Cloudy
7:00 AM 60.8 °F 59.0 °F 94% 29.86 in 3.1 mi WSW 6.9 mph - N/A   Mostly Cloudy
8:00 AM 60.8 °F 59.0 °F 94% 29.86 in 3.1 mi WSW 9.2 mph - N/A   Mostly Cloudy
9:00 AM 60.8 °F 59.0 °F 94% 29.89 in 6.2 mi SW 11.5 mph - N/A   Mostly Cloudy
11:00 AM 66.2 °F 57.2 °F 73% 29.92 in 6.2 mi SSW 15.0 mph - N/A   Partly Cloudy
12:00 PM 69.8 °F 57.2 °F 64% 29.92 in 6.2 mi South 17.3 mph - N/A   Partly Cloudy
1:00 PM 71.6 °F 57.2 °F 60% 29.92 in 6.2 mi South 19.6 mph - N/A   Partly Cloudy
2:00 PM 69.8 °F 55.4 °F 60% 29.92 in 6.2 mi South 20.7 mph - N/A   Partly Cloudy
3:00 PM 69.8 °F 55.4 °F 60% 29.92 in 6.2 mi SSW 21.9 mph - N/A   Partly Cloudy
4:00 PM 68.0 °F 53.6 °F 60% 29.92 in 6.2 mi SSW 19.6 mph - N/A   Partly Cloudy
5:00 PM 68.0 °F 53.6 °F 60% 29.92 in 6.2 mi South 18.4 mph - N/A   Partly Cloudy
6:00 PM 64.4 °F 53.6 °F 68% 29.92 in 6.2 mi South 15.0 mph - N/A   Partly Cloudy
7:00 PM 62.6 °F 53.6 °F 72% 29.92 in 6.2 mi SSW 13.8 mph - N/A   Partly Cloudy
8:00 PM 60.8 °F 53.6 °F 77% 29.95 in 6.2 mi SW 15.0 mph - N/A   Scattered Clouds
9:00 PM 59.0 °F 53.6 °F 82% 29.95 in 6.2 mi SW 9.2 mph - N/A   Scattered Clouds
10:00 PM 59.0 °F 53.6 °F 82% 29.98 in 6.2 mi SW 9.2 mph - N/A   Scattered Clouds
11:00 PM 59.0 °F 53.6 °F 82% 29.98 in 6.2 mi SW 6.9 mph - N/A   Scattered Clouds